Cherokee, North Carolina, United States (28719)
Lat: 35.47N, Lon: 83.31W
Wx Zone: NCZ051
Local Info
Past Weather Observations for Today

NOTE: This archive is for the closest National Weather Service station to Cherokee. Information may differ from the station used for current weather conditions.

Click here for Long-term Archive

Time Weather Temperature Dewpoint Humidity Pressure Winds Precip Visibility
18:55
Drizzle
52°F / 11°C 52°F / 11°C 100% 30.12 in
(1020 mb)
Calm 0.07 in
(1.78 mm)
5SM
18:35
Drizzle
52°F / 11°C 52°F / 11°C 100% 30.09 in
(1019 mb)
Calm 0.06 in
(1.52 mm)
5SM
18:15
Drizzle
52°F / 11°C 50°F / 10°C 94% 30.09 in
(1019 mb)
Calm 0.04 in
(1.02 mm)
5SM
17:55
Rain
52°F / 11°C 50°F / 10°C 94% 30.09 in
(1019 mb)
Calm 0.08 in
(2.03 mm)
3SM
17:35
Rain
52°F / 11°C 50°F / 10°C 94% 30.09 in
(1019 mb)
Calm 0.03 in
(0.76 mm)
4SM
17:15
Rain
52°F / 11°C 50°F / 10°C 94% 30.12 in
(1020 mb)
Calm 0.01 in
(0.25 mm)
7SM
16:55
Rain
54°F / 12°C 50°F / 10°C 88% 30.12 in
(1020 mb)
Calm 0.01 in
(0.25 mm)
3SM
16:35
Drizzle
54°F / 12°C 50°F / 10°C 88% 30.12 in
(1020 mb)
Calm - 7SM
16:15
Drizzle
54°F / 12°C 50°F / 10°C 88% 30.12 in
(1020 mb)
Calm - 4SM
15:55
Fair
55°F / 13°C 48°F / 9°C 77% 30.12 in
(1020 mb)
Calm - 10SM
15:35
Fair
55°F / 13°C 48°F / 9°C 77% 30.12 in
(1020 mb)
Calm - 10SM
15:15
Fair
55°F / 13°C 48°F / 9°C 77% 30.12 in
(1020 mb)
Calm - 10SM
14:55
Fair
55°F / 13°C 48°F / 9°C 77% 30.12 in
(1020 mb)
Calm - 10SM
14:35
Fair
55°F / 13°C 48°F / 9°C 77% 30.15 in
(1021 mb)
Calm - 10SM
14:15
Fair
55°F / 13°C 48°F / 9°C 77% 30.15 in
(1021 mb)
Calm - 10SM
13:55
Fair
55°F / 13°C 48°F / 9°C 77% 30.18 in
(1022 mb)
Calm - 10SM
13:35
Fair
55°F / 13°C 48°F / 9°C 77% 30.18 in
(1022 mb)
Calm - 10SM
13:20
Fair
55°F / 13°C 48°F / 9°C 77% 30.21 in
(1023 mb)
Calm - 10SM
12:55
Fair
55°F / 13°C 48°F / 9°C 77% 30.21 in
(1023 mb)
Calm - 10SM
12:35
Fair
54°F / 12°C 48°F / 9°C 82% 30.21 in
(1023 mb)
Calm - 7SM
12:15
Fair
55°F / 13°C 48°F / 9°C 77% 30.21 in
(1023 mb)
Calm - 10SM
11:55
Fair
55°F / 13°C 48°F / 9°C 77% 30.24 in
(1024 mb)
SSE 5.8 mph
(SSE 9 kph)
- 10SM
11:35
Fair
54°F / 12°C 48°F / 9°C 82% 30.24 in
(1024 mb)
Calm - 10SM
11:15
Fair
54°F / 12°C 48°F / 9°C 82% 30.24 in
(1024 mb)
Calm - 10SM
10:55
Light Rain
52°F / 11°C 48°F / 9°C 88% 30.24 in
(1024 mb)
Calm - 7SM
10:35
Light Rain
52°F / 11°C 46°F / 8°C 82% 30.24 in
(1024 mb)
Calm - 10SM
10:15
Fair
52°F / 11°C 46°F / 8°C 82% 30.27 in
(1025 mb)
Calm - 10SM
09:55
Fair
50°F / 10°C 46°F / 8°C 88% 30.27 in
(1025 mb)
Calm - 10SM
09:35
Drizzle
50°F / 10°C 48°F / 9°C 94% 30.24 in
(1024 mb)
Calm - 7SM
09:15
Fair
50°F / 10°C 48°F / 9°C 94% 30.24 in
(1024 mb)
Calm - 10SM
08:55
Fair
48°F / 9°C 48°F / 9°C 100% 30.24 in
(1024 mb)
Calm - 7SM
08:35
Drizzle
46°F / 8°C 46°F / 8°C 100% 30.24 in
(1024 mb)
Calm - 7SM
08:15
Light Rain
46°F / 8°C 46°F / 8°C 100% 30.24 in
(1024 mb)
Calm - 5SM
07:55
Drizzle
45°F / 7°C 45°F / 7°C 100% 30.24 in
(1024 mb)
Calm - 7SM
07:35
Fair
45°F / 7°C 45°F / 7°C 100% 30.24 in
(1024 mb)
Calm - 7SM
07:15
Light Rain
45°F / 7°C 45°F / 7°C 100% 30.24 in
(1024 mb)
Calm - 7SM
06:55
Fair
45°F / 7°C 45°F / 7°C 100% 30.24 in
(1024 mb)
Calm - 10SM
06:35
Drizzle
45°F / 7°C 45°F / 7°C 100% 30.24 in
(1024 mb)
Calm - 10SM
06:15
Fair
45°F / 7°C 43°F / 6°C 93% 30.24 in
(1024 mb)
Calm - 10SM
05:55
Fair
45°F / 7°C 43°F / 6°C 93% 30.24 in
(1024 mb)
Calm - 10SM
05:35
Fair
45°F / 7°C 43°F / 6°C 93% 30.24 in
(1024 mb)
Calm - 10SM
05:15
Fair
45°F / 7°C 43°F / 6°C 93% 30.24 in
(1024 mb)
Calm - 10SM
04:55
Fair
45°F / 7°C 43°F / 6°C 93% 30.24 in
(1024 mb)
Calm - 10SM
04:35
Light Rain
45°F / 7°C 41°F / 5°C 87% 30.24 in
(1024 mb)
Calm - 10SM
04:15
Drizzle
45°F / 7°C 43°F / 6°C 93% 30.24 in
(1024 mb)
Calm - 10SM
03:55
Fair
46°F / 8°C 43°F / 6°C 87% 30.24 in
(1024 mb)
Calm - 10SM
03:35
Fair
45°F / 7°C 43°F / 6°C 93% 30.24 in
(1024 mb)
Calm - 10SM
03:15
Fair
45°F / 7°C 41°F / 5°C 87% 30.24 in
(1024 mb)
Calm - 10SM
02:55
Fair
45°F / 7°C 43°F / 6°C 93% 30.24 in
(1024 mb)
Calm - 10SM
02:35
Drizzle
46°F / 8°C 43°F / 6°C 87% 30.24 in
(1024 mb)
Calm - 10SM
02:15
Fair
46°F / 8°C 43°F / 6°C 87% 30.24 in
(1024 mb)
Calm - 10SM
01:55
Fair
46°F / 8°C 43°F / 6°C 87% 30.24 in
(1024 mb)
Calm - 10SM
01:35
Fair
46°F / 8°C 43°F / 6°C 87% 30.24 in
(1024 mb)
Calm - 10SM
01:15
Fair
45°F / 7°C 45°F / 7°C 100% 30.27 in
(1025 mb)
Calm - 10SM
00:55
Fair
45°F / 7°C 45°F / 7°C 100% 30.27 in
(1025 mb)
Calm - 10SM
00:35
Fair
45°F / 7°C 45°F / 7°C 100% 30.27 in
(1025 mb)
Calm - 10SM
00:15
Fair
45°F / 7°C 43°F / 6°C 93% 30.27 in
(1025 mb)
Calm - 10SM
Time Weather Temperature Dewpoint Humidity Pressure Winds Precip Visibility


Weather for websites

WeatherForYou.com, LLC is not responsible for any damages or problems caused by this service. Current weather conditions are obtained from the closest station including government and personal stations which may have varying degrees of accuracy. Weather forecasts are derived from the NOAA NDFD. Like all things, this site belongs to Jesus Christ... He just trusts me to maintain it. If you have any questions or comments email webmaster@weatherforyou.com

Copyright © 2015, WeatherForYou.com LLC. All rights reserved.